TOURFACTS.DK  
Stats and Facts from Tour de France.

Tour de France 2018 starts in 13 days
  Riders   Stages   Teams   Summits   Yearly  


 
Search by year

After 2017 - Stage 21:
 14824 starters.
  5132 different riders.
  639 teams.
  2232 stages.
  456 restdays.
  439589.60 km.
  5653 abandonnees.


Top 3
GC
Christopher Froome86:20:55
Rigoberto Urán86:21:49
Romain Bardet86:23:15
Climb
Warren Barguil169 pt.
Primoz Roglic80 pt.
Thomas De Gendt64 pt.
Sprint
Michael Matthews359 pt.
André Greipel234 pt.
Edvald Boasson Hagen220 pt.
Youth
Simon Yates86:27:09
Louis Meintjes86:29:15
Emanuel Buchmann86:54:16
Facts from Tour de France 1975
  |   Stages.  |   Stage winners.  |   Days in yellow  |   Average speed.  |   Route.  |   Teams.  |   All riders.  |   Rookies.  |  

  |   Withdrawls.  |   GC.  |   Polka  |   Green  |   White  |   Summits. (In tour)  |   Miscellaneous.  |  

Stage 16 on 14 - 07 - 1975
         Owning:    Bernard Thevenet    
Pick a stage:  Pro 1a 1b 2 3 4 5 6 7 8 9a 9b 10 11 12 13 14 15 16 17 18 19 20 21 22
  BarcelonnetteSerre-Chevalier | Dist: 107.00 km.
Cat: 2Col de VarsNEDJoop Zoetemelk
15 points
 
Cat: 1Col de l'IzoardFRABernard Thevenet
20 points
 

Average speed for all riders in stage:  29,776 km./hr.
    Place:Name:Team:Time:Km/h:
FRABernard ThevenetFRAPeugeot-BP-Michelin03:16:17  +  00:00:00=32,708 
2 FRARichard PianaroFRAJobo-Wolber03:16:40  +  00:00:23=32,644 
3 BELFrans Van VlierbergheBELMiko-De Gribaldy03:17:37  +  00:01:20=32,487 
BELEddy MerckxITAMolteni03:18:39  +  00:02:22=32,318 
ITAFelice GimondiITABianchi-Campagnolo03:18:39  +  00:02:22=32,318 
6 NEDJoop ZoetemelkFRAGan-Mercier-Hutchinson03:18:39  +  00:02:22=32,318 
7 BELLucien Van ImpeFRAGitane-Campagnolo03:18:39  +  00:02:22=32,318 
8 ESPAndré RomeroFRAJobo-Wolber03:18:39  +  00:02:22=32,318 
9 ESPVicente LopezESPKas-Kaskol03:18:39  +  00:02:22=32,318 
10 ESPFrancisco GaldosESPKas-Kaskol03:18:39  +  00:02:22=32,318 
11 BELEduard JanssensITAMolteni03:18:39  +  00:02:22=32,318 
12 BELHerman Van SpringelBELCarpenter Confortluxe-Flandria03:30:25  +  00:14:08=30,511 
13 ESPMariano MartinezFRAGitane-Campagnolo03:30:25  +  00:14:08=30,511 
14 ITAFrancesco MoserITAFilotex03:30:34  +  00:14:17=30,489 
15 SUIJosef FuchsITAFilotex03:30:34  +  00:14:17=30,489 
16 ESPPedro TorresESPSuper Ser03:30:34  +  00:14:17=30,489 
17 ITAFabrizio FabbriITABianchi-Campagnolo03:30:34  +  00:14:17=30,489 
18 ITARoberto PoggialiITAFilotex03:30:34  +  00:14:17=30,489 
19 ITASigfrido FontanelliITAFilotex03:30:34  +  00:14:17=30,489 
20 ESPJosé CasasESPSuper Ser03:33:31  +  00:17:14=30,068 
21 NEDFedor Iwan Den HertogNLDFrisol-G.B.C.03:33:31  +  00:17:14=30,068 
22 PORJoaquim AgostinhoPRTSporting-Sottomayor03:33:31  +  00:17:14=30,068 
23 FRARaymond PoulidorFRAGan-Mercier-Hutchinson03:33:31  +  00:17:14=30,068 
24 PORFernando FerreiraPRTSporting-Sottomayor03:33:31  +  00:17:14=30,068 
25 FRAPatrick PerretBELMiko-De Gribaldy03:34:08  +  00:17:51=29,981 
26 FRARaymond MartinFRAGitane-Campagnolo03:34:08  +  00:17:51=29,981 
27 FRAFrancis CampanerPRTSporting-Sottomayor03:34:08  +  00:17:51=29,981 
28 NEDHennie KuiperNLDFrisol-G.B.C.03:34:08  +  00:17:51=29,981 
29 ESPAntonio MenendezESPKas-Kaskol03:34:08  +  00:17:51=29,981 
30 FRAFerdinand JulienPRTSporting-Sottomayor03:34:08  +  00:17:51=29,981 
31 BELJos De SchoenmaeckerITAMolteni03:34:08  +  00:17:51=29,981 
32 FRAYves HézardFRAGan-Mercier-Hutchinson03:34:08  +  00:17:51=29,981 
33 FRAGeorges TalbourdetFRAGan-Mercier-Hutchinson03:34:08  +  00:17:51=29,981 
34 FRAJean-Pierre DanguillaumeFRAPeugeot-BP-Michelin03:34:08  +  00:17:51=29,981 
35 NEDGerard VianenFRAGan-Mercier-Hutchinson03:36:42  +  00:20:25=29,626 
36 BELTony HoubrechtsITABianchi-Campagnolo03:37:00  +  00:20:43=29,585 
37 ESPLuis BalagueESPSuper Ser03:37:00  +  00:20:43=29,585 
38 ESPJosé GrandeESPKas-Kaskol03:37:00  +  00:20:43=29,585 
39 ESPJosé PesarrodonaESPKas-Kaskol03:37:00  +  00:20:43=29,585 
40 ITAGiacinto SantambrogioITABianchi-Campagnolo03:37:00  +  00:20:43=29,585 
41 ITARenato MarchettiITAFilotex03:37:00  +  00:20:43=29,585 
42 ITAArnaldo CaverzasiITAFilotex03:37:00  +  00:20:43=29,585 
43 ESPCarlos MeleroESPKas-Kaskol03:37:00  +  00:20:43=29,585 
44 BELJoseph SpruytITAMolteni03:37:00  +  00:20:43=29,585 
45 BELAlbert Van VlierbergheBELMiko-De Gribaldy03:37:00  +  00:20:43=29,585 
46 FRAJoël MillardFRAJobo-Wolber03:37:00  +  00:20:43=29,585 
47 BELMichel PollentierBELCarpenter Confortluxe-Flandria03:37:00  +  00:20:43=29,585 
48 FRARégis OvionFRAPeugeot-BP-Michelin03:37:00  +  00:20:43=29,585 
49 FRAJean-Pierre GenetFRAGan-Mercier-Hutchinson03:37:00  +  00:20:43=29,585 
50 ITASimone FraccaroITABianchi-Campagnolo03:37:00  +  00:20:43=29,585 
51 COLMartìn RodríguezITABianchi-Campagnolo03:37:00  +  00:20:43=29,585 
52 NEDHenk PrinsenNLDFrisol-G.B.C.03:38:27  +  00:22:10=29,389 
53 FRABernard BourreauFRAPeugeot-BP-Michelin03:38:54  +  00:22:37=29,328 
54 BELWilly TeirlinckFRAGitane-Campagnolo03:38:54  +  00:22:37=29,328 
55 BELMarc DemeyerBELCarpenter Confortluxe-Flandria03:38:54  +  00:22:37=29,328 
56 BELMarc LievensITAMolteni03:38:54  +  00:22:37=29,328 
57 FRARoger LegeayFRAJobo-Wolber03:38:54  +  00:22:37=29,328 
58 FRARobert MintkiewiczFRAGitane-Campagnolo03:38:54  +  00:22:37=29,328 
59 BELFrans MintjensITAMolteni03:38:54  +  00:22:37=29,328 
60 ENGBarry HobanFRAGan-Mercier-Hutchinson03:38:54  +  00:22:37=29,328 
61 FRAHubert MathisBELMiko-De Gribaldy03:38:54  +  00:22:37=29,328 
62 FRARaymond DelisleFRAPeugeot-BP-Michelin03:38:54  +  00:22:37=29,328 
63 FRAMaurice Le GuillouxFRAGitane-Campagnolo03:38:54  +  00:22:37=29,328 
64 FRARegis DelepineBELCarpenter Confortluxe-Flandria03:38:54  +  00:22:37=29,328 
65 NEDGerrie KnetemannFRAGan-Mercier-Hutchinson03:38:54  +  00:22:37=29,328 
66 BELRonald De WitteBELCarpenter Confortluxe-Flandria03:38:54  +  00:22:37=29,328 
67 BELWalter GodefrootBELCarpenter Confortluxe-Flandria03:38:54  +  00:22:37=29,328 
68 ESPJosé-Luis ViejoESPSuper Ser03:38:54  +  00:22:37=29,328 
69 MARAntoine GutierrezBELMiko-De Gribaldy03:38:54  +  00:22:37=29,328 
70 BELKarel RottiersITAMolteni03:38:54  +  00:22:37=29,328 
71 NEDGerben KarstensFRAGitane-Campagnolo03:38:54  +  00:22:37=29,328 
72 FRASylvain VasseurESPSuper Ser03:38:54  +  00:22:37=29,328 
73 BELJoseph HuysmansITAMolteni03:38:54  +  00:22:37=29,328 
74 BELAndre DoyenBELMiko-De Gribaldy03:38:54  +  00:22:37=29,328 
75 ITAMauro SimonettiITAFilotex03:38:54  +  00:22:37=29,328 
76 FRACharly RouxelFRAPeugeot-BP-Michelin03:38:54  +  00:22:37=29,328 
77 FRAJean-Claude MisacFRAGan-Mercier-Hutchinson03:40:47  +  00:24:30=29,078 
78 BELRené DillenFRAGitane-Campagnolo03:40:47  +  00:24:30=29,078 
79 FRAGuy LeleuFRAGitane-Campagnolo03:40:47  +  00:24:30=29,078 
80 FRAJoel HauvieuxFRAJobo-Wolber03:40:47  +  00:24:30=29,078 
81 FRAGuy SibilleFRAPeugeot-BP-Michelin03:42:32  +  00:26:15=28,850 
82 FRAPatrick BeonFRAPeugeot-BP-Michelin03:42:32  +  00:26:15=28,850 
83 FRAClaude MagniFRAJobo-Wolber03:42:32  +  00:26:15=28,850 
84 BELJosé De CauwerNLDFrisol-G.B.C.03:42:32  +  00:26:15=28,850 
85 BELHerman BeysensITAMolteni03:42:32  +  00:26:15=28,850 
86 BELRik Van LindenITABianchi-Campagnolo03:43:24  +  00:27:07=28,738 
87 ITALuigi CastellettiITABianchi-Campagnolo03:43:24  +  00:27:07=28,738 
88 FRAJacques BoulasFRAJobo-Wolber03:43:24  +  00:27:07=28,738 
89 BELLudo DelcroixITAMolteni03:43:24  +  00:27:07=28,738 
90 ITAGiovanni CavalcantiITABianchi-Campagnolo03:43:24  +  00:27:07=28,738 
91 PORJosé AmaroPRTSporting-Sottomayor03:43:24  +  00:27:07=28,738 
92 FRASerge ParsaniITABianchi-Campagnolo03:43:24  +  00:27:07=28,738 
93 DENOle RitterITAFilotex03:43:24  +  00:27:07=28,738 
94 FRAGerard MoneyronBELCarpenter Confortluxe-Flandria03:43:24  +  00:27:07=28,738 
95 ITAPietro DallaiITAFilotex03:43:24  +  00:27:07=28,738 
96 NEDGerard KamperNLDFrisol-G.B.C.03:43:24  +  00:27:07=28,738 
97 AUSDonald AllanNLDFrisol-G.B.C.03:47:12  +  00:30:55=28,257 

Withdrawls: 2
 
Rider
Team
Reason
17  FRAMichel PerinFRAGan-Mercier-HutchinsonDid not start
45  ESPSantiago LazcanoESPSuper SerDid not finish

Todays birthdays.

1895  François Colomines
1901  Victor Pellier
1921  Maurice Carpentier
1921  Hans Hutmacher
1924  Norbert Callens
1928  Armand Baeyens
1933  Adriano Zamboni
1944  Ercole Gualazzini
1952  Jose Lopez
1956  Alfons De Wolf
1958  Sergio Jaramillo
1961  José Vieira
1963  Luigi Furlan
1972  Dariusz Baranowski
1973  Cyril Saugrain
1975  Andréas Klöden
1977  Angelo Furlan
1979  Thomas Voeckler
1983  Jérémy Roy




Visits: